Location: Westminster
(33.3626°N, 96.4619°W)
Time: 20:01:36
(UTC+00:00)

BREEZE-M DEB (TANK) - Pass Details

Date: 03 December 2021
Orbit: 315 x 12018 km, 49.7° (Epoch: 26 January)

Event Time Altitude Azimuth Distance (km) Brightness Sun altitude
Exits shadow 12:17:48 - 309° (NW) 7,267 7.2 -11.6°
Reaches altitude 10° 12:19:24 10° 309° (NW) 6,705 7.0 -11.3°
Maximum altitude 12:34:22 71° 229° (SW) 1,206 3.7 -8.3°
Drops below altitude 10° 12:38:37 10° 145° (SE) 2,051 6.0 -7.5°
Sets 12:40:02 0° 142° (SE) 2,659 6.8 -7.2°
